Regional Weather Roundup
Issued by NWS Jackson, KY

Home | Current Version | Previous Version | Text Only | Print | Product List | Glossary Off
Versions: 1 2 3 4 5 6 7 8 9 10 11 12 13 14 15 16 17 18 19 20 21 22 23 24 25 26 27 28 29 30 31 32 33 34 35 36 37 38 39 40 41 42 43 44 45 46 47 48 49 50

000
ASUS43 KJKL 030119
RWRJKL

EAST KENTUCKY HOURLY WEATHER ROUNDUP
NATIONAL WEATHER SERVICE JACKSON KY
900 PM EDT TUE SEP 02 2014

NOTE: "FAIR" INDICATES FEW OR NO CLOUDS BELOW 12,000 FEET WITH
NO SIGNIFICANT WEATHER AND/OR OBSTRUCTIONS TO VISIBILITY.

* THESE REPORTS ARE NOT UNDER NWS QUALITY CONTROL AND MAY NOT
  REPORT WEATHER SUCH AS PRECIPITATION AND FOG.

KYZ079-080-083-085-087-088-110-112-115-119-120-030200
...EASTERN KENTUCKY...

CITY           SKY/WX    TMP DP  RH WIND       PRES   REMARKS
JACKSON        CLOUDY    69  67  93 CALM      30.01F
LONDON         CLOUDY    71  68  90 S3        30.03R
SOMERSET*      MOCLDY    70  68  94 CALM      30.02R
MONTICELLO*    CLOUDY    71  71 100 CALM      30.04R
WILLIAMSBURG*  MOCLDY    68  68 100 SE5       30.05R
MIDDLESBORO*   LGT RAIN  69  68  96 CALM      30.07R
HARLAN APT*    CLOUDY    68  68 100 MISG      30.07R
PIKEVILLE APT* PTCLDY    68  68 100 SE5       30.04S
BIG SANDY*     CLOUDY    70  69  95 S6        30.02S
MOREHEAD APT*  CLOUDY    70  68  94 CALM      30.01R
ASHLAND*       CLEAR     73  66  78 CALM      29.96R
$$

KYZ035-036-041-042-044-050-067-078-099-030200
...CENTRAL KENTUCKY...

CITY           SKY/WX    TMP DP  RH WIND       PRES   REMARKS
MT STERLING*   MOCLDY    70  70 100 CALM      30.00S
FLEMING/MASON* CLEAR     70  70 100 S6        29.99R
DANVILLE*      MOCLDY    72  70  94 CALM      30.02R
RICHMOND*      MOCLDY    72  68  88 CALM      30.00R
LEXINGTON      MOCLDY    72  69  90 CALM      30.00R
FRANKFORT      PTCLDY    73  71  93 NW3       29.98R
$$

KYZ091>093-OHZ055-061-077-WVZ005-015-034-035-042-030200
...SOUTHERN OHIO/WEST VIRGINIA...

CITY           SKY/WX    TMP DP  RH WIND       PRES   REMARKS
COVINGTON      PTCLDY    71  69  93 S3        29.97R FOG
COLUMBUS       PTCLDY    73  65  75 W5        29.94R
DAYTON         PTCLDY    71  66  84 SW3       29.98R
WILMINGTON     CLEAR     70  65  84 CALM      29.97R
HUNTINGTON     RAIN      70  69  97 S7        29.97R
CHARLESTON     CLOUDY    72  71  97 S9        29.99R
PINEVILLE*     HVY RAIN  72  72 100 MISG      30.12F
BECKLEY        HVY RAIN  67  65  93 S7        30.12R FOG
BLUEFIELD      TSTM      69  65  86 W7        30.14R FOG
$$

VAZ002-007-008-TNZ017-027-036-066-071-030200
...SOUTHWEST VIRGINIA/EAST TENNESSEE...

CITY           SKY/WX    TMP DP  RH WIND       PRES   REMARKS
WISE*          TSTM      66  66 100 S5        30.12F
JONESVILLE*    LGT RAIN  70  68  94 CALM      30.11R
ABINGDON*      LGT RAIN  76  66  70 N9        30.10R
BRISTOL        MOCLDY    83  66  56 NW18G26   30.08R THUNDER
KNOXVILLE      MOCLDY    77  65  66 N13       30.04  THUNDER
OAK RIDGE      RAIN      72  69  90 N3        30.08R FOG
CROSSVILLE     TSTM      69  66  90 W8        30.10R FOG
NASHVILLE      CLOUDY    74  72  93 NE7       29.97F
$$

...KEY TO REMARKS...
VSB - VISIBILITY IN MILES
WCI - WIND CHILL INDEX
HX  - HEAT INDEX

$$



USA.gov is the U.S. government's official web portal to all federal, state and local government web resources and services.